Regional Weather Roundup
Issued by NWS

Home | Current Version | Previous Version | Graphics & Text | Print | Product List | Glossary On
Versions: 1 2 3 4 5 6 7 8 9 10 11 12 13 14 15 16 17 18 19 20 21 22 23 24 25 26 27 28 29 30 31 32 33 34 35 36 37 38 39 40 41 42 43 44 45 46 47 48 49 50
000
ASUS43 KTOP 292159
RWRKS

WEATHER ROUNDUP FOR KANSAS
NATIONAL WEATHER SERVICE GOODLAND KS
500 PM CDT WED JUL 29 2015

NOTE:  "FAIR" INDICATES FEW OR NO CLOUDS BELOW 12,000 FEET WITH NO
SIGNIFICANT WEATHER AND/OR OBSTRUCTIONS TO VISIBILITY.

KSZ001>006-013>018-027>032-041>047-292300-
NORTHWEST KANSAS

CITY           SKY/WX    TMP DP  RH WIND       PRES   REMARKS
GOODLAND       SUNNY     80  40  23 SE13G21   30.26F
HAYS           MOSUNNY   81  55  41 E10       30.20F
HILL CITY      SUNNY     85  51  31 E10       30.22F
RUSSELL        SUNNY     84  51  31 E18       30.18F
$$

KSZ061>065-074>080-084>089-292300-
SOUTHWEST KANSAS

CITY           SKY/WX    TMP DP  RH WIND       PRES   REMARKS
DODGE CITY     MOSUNNY   80  63  55 NE12      30.19F
ELKHART          N/A     82  64  54 E8          N/A
GARDEN CITY    PTSUNNY   78  63  59 NE14      30.21F
GREAT BEND     CLOUDY    82  64  54 NE9       30.17F
LIBERAL        CLOUDY    84  64  51 NE14      30.17F
$$

KSZ066>073-081>083-090>101-292300-
SOUTHEAST KANSAS

CITY           SKY/WX    TMP DP  RH WIND       PRES   REMARKS
CHANUTE        MOSUNNY   89  71  55 NE13      30.09S HX  95
COFFEYVILLE    PTSUNNY   93  72  50 N3        30.03F HX 101
HUTCHINSON     CLOUDY    77  71  82 NW3       30.17F
MEDICINE LODGE   N/A     72  69  90 N13       30.13R
PARSONS        SUNNY     91  75  59 NE9G18    30.07S HX 101
WICHITA INTL   TSTM      78  71  79 N10       30.16R
WICHITA JABRA  LGT RAIN  79  70  74 N10       30.15R
WICHITA MCCONL TSTM      77  72  83 N14       30.16R
WINFIELD       MOSUNNY   92  70  48 SE8       30.07S HX  97
$$

KSZ007>012-019>026-033>040-048>060-102>105-292300-
NORTHEAST KANSAS

CITY           SKY/WX    TMP DP  RH WIND       PRES   REMARKS
CONCORDIA      SUNNY     82  61  48 E8        30.20S
EMPORIA        CLOUDY    83  69  62 NE15      30.13S
LAWRENCE       PTSUNNY   83  68  60 NE6       30.13S
MANHATTAN      PTSUNNY   83  71  67 E8        30.16S
OLATHE IND     PTSUNNY   85  65  51 NE9       30.14S
OLATHE EXE     MOSUNNY   84  65  52 NE7       30.13S
SALINA         PTSUNNY   84  69  60 NE9       30.17S
TOPEKA BILLARD PTSUNNY   83  70  64 N6        30.14S
TOPEKA FORBES  CLOUDY    83  70  64 N6        30.15R
$$


USA.gov is the U.S. government's official web portal to all federal, state and local government web resources and services.